weather.gov     
National Weather Service

Regional Weather Roundup
NWS Homepage
This page is being discontinued on March 12, 2014.
The same data is available at this site. Please update your bookmarks.
Thank you, and we apologize for the inconvenience.
Please send an email to SR-SRH.Webmaster@noaa.gov with any concerns.


Current Version
Previous Version:    01  02  03  04  05  06  07  08  09  10  11  12  13  14  15  16  17  18  19  20  21  22  23  24  25  26  27  28  29  30  
   31  32  33  34  35  36  37  38  39  40  41  42  43  44  45  46  47  48  49  50  51  52  53  54  55  56  57  58  59  60  
[Printable]
958
ASUS46 KPDT 220525
RWRPDT
PENDLETON REGIONAL WEATHER ROUNDUP
NATIONAL WEATHER SERVICE PENDLETON OREGON
900 PM PST SUN DEC 21 2014

NOTE: FAIR INDICATES FEW OR NO CLOUDS BELOW 12,000 FEET WITH NO
SIGNIFICANT WEATHER AND/OR OBSTRUCTIONS TO VISIBILITY.

# INDICATES UNOFFICIAL STATION AND DATA

WAZ520-220610-
EAST SLOPES OF WASHINGTON CASCADES

CITY            SKY/WX      TMP DP  RH  WIND    PRES   REMARKS
#BULLFROG 2SW   N/A         41  40  96  S2      27.64R
#BUMPING DAM    N/A         34  N/A N/A NW1     N/A
#CLE ELUM HS    N/A         41  39  93  CALM    30.00R
#CLE ELUM 2NW   N/A         40  39  96  S2      N/A
#CLE ELUM LAKE  N/A         38  36  92  NE1     30.05R
#CLIFFDEL 2NW   N/A         36  35  96  N1      N/A
#GLENWOOD       N/A         44  40  86  W2      30.07S
#MANASTASH CYN  N/A         38  33  82  N1      29.98S
#NELSON         N/A         40  38  92  CALM    30.09R
#NILE           N/A         35  35  100 N1      29.33R
#SNOWDEN        N/A         43  39  86  W7      N/A
#TEANAWAY 4NE   N/A         40  39  96  CALM    N/A
#TROUT LAKE HS  N/A         44  42  93  SW1     N/A
#TROUT LAKE 1NE N/A         41  40  96  W1      30.14R
$$

WAZ521-220610-
SIMCOE HIGHLANDS

CITY            SKY/WX      TMP DP  RH  WIND    PRES   REMARKS
#BICKLETON HS   N/A         42  28  57  W9      34.25S
#CENTERVILLE 1SWN/A         44  41  89  W9      30.05S
#GOLDENDALE     N/A         48  42  80  SW6     N/A
#GOLDENDALE 1NE N/A         46  38  73  S2      N/A
#GOLDENDALE 1S  N/A         45  42  89  W5      30.05R
#GOLDENDALE 5WNWN/A         47  39  74  W13     30.06R WCI 41
#GOODNOE HILLS  N/A         46  41  83  S3      N/A
#LYLE 6NE       N/A         46  41  83  SW10    30.06R
$$

WAZ026-220610-
KITTITAS VALLEY

CITY            SKY/WX      TMP DP  RH  WIND    PRES   REMARKS
ELLENSBURG AP   PTCLDY      42  34  73  NW9     30.03R
#ELLENSBURG CWU N/A         41  36  82  N7      30.00R
#ELLENSBURG 3NE N/A         41  37  86  N3      30.02S
#ELLENSBURG     N/A         44  41  89  NW3     N/A
#KITTITAS 4N    N/A         42  34  73  NW5     30.06R
#KITTITAS 3S    N/A         42  38  86  CALM    30.03R
#THORP 6N       N/A         40  38  92  NW13G29 30.07R WCI 32
$$

WAZ027-220610-
YAKIMA VALLEY

CITY            SKY/WX      TMP DP  RH  WIND    PRES   REMARKS
YAKIMA-VAGABOND PTCLDY      39  34  82  S3      30.05R
#DONALD 2NE     N/A         50  32  50  E3      28.88F
#GRANDVIEW      N/A         41  35  79  CALM    30.07R
#MABTON         N/A         46  40  79  CALM    30.06R
#MOXEE 2E       N/A         39  36  89  S5      29.92F
#NACHES 2SW     N/A         42  36  79  W2      29.90S
#OUTLOOK DOT    N/A         N/A N/A N/A NW5     N/A
#SELAH 8E       N/A         36  33  89  E1      N/A
#TERRACE HTS    N/A         40  36  85  CALM    30.03R
#WAPATO 4NE     N/A         50  32  50  E3      28.88F
#WEST VALLEY    N/A         46  37  71  CALM    30.03S
#W YAKIMA       N/A         46  36  68  CALM    30.04S
#WHITE SWAN 5E  N/A         48  38  68  SW7     30.06R
#WILEY CITY 3W  N/A         46  25  43  SW2     29.92S
$$

WAZ028-220610-
LOWER COLUMBIA BASIN...WASHINGTON

CITY            SKY/WX      TMP DP  RH  WIND    PRES   REMARKS
PASCO           CLOUDY      50  43  77  SW10    30.05S
PROSSER AWOS    N/A         39  37  92  NW5     30.09R
#BASIN CITY 5SW N/A         46  40  79  W2      30.04R
#BENTON CITY    N/A         45  39  79  CALM    29.96R
#CONNELL 5N     N/A         44  38  79  SW7     30.02S
#CONNELL 5NW    N/A         44  39  82  W7      29.98F
#ELTOPIA        N/A         47  42  83  CALM    30.01R
#ELTOPIA 6NW    N/A         46  40  79  NW1     29.00R
#KAHLOTUS       N/A         47  39  74  NW30    30.01R WCI 38
#KENNEWICK      N/A         41  40  96  S2      27.64R
#KENNEWICK 3S   N/A         49  44  83  SW6     30.04F
#PASCO-BROADMOORN/A         50  41  71  SW3     29.97R
#PATERSON       N/A         49  44  83  SW6     30.06R
#PROSSER        N/A         49  36  61  S5      30.05R
#SAGEMOOR 2W    N/A         48  43  83  SW3     29.88S
#TOUCHET 2S     N/A         51  43  74  SW10    30.03R
#WEST PASCO     N/A         51  43  74  SW6     30.06R
$$

WAZ029-220610-
FOOTHILLS OF THE BLUES...WASHINGTON

CITY            SKY/WX      TMP DP  RH  WIND    PRES   REMARKS
WALLA WALLA AP  CLOUDY      50  41  71  SW13    30.06R
#COLLEGE PLACE  N/A         50  39  66  CALM    30.09R
#DAYTON SCHOOL  N/A         47  38  71  SW12    30.06R WCI 42
#LOWDEN 2SE     N/A         51  43  74  W13     30.03R
#PLEASANT VIEW 1N/A         42  40  93  S12     30.06F WCI 35
#PRESCOTT       N/A         47  43  86  CALM    30.04R
#SUDBURY        N/A         50  N/A N/A CALM    N/A
#WHITMAN COLLEGEN/A         50  42  74  W9      30.11R
#WAITSBURG 5S   N/A         45  41  86  SW9     30.15R
#WALLA WALLA 5E N/A         48  42  80  SW12    N/A    WCI 43
#WALLA WALLA U  N/A         51  43  74  CALM    30.06R
#WHITMAN MISSIONN/A         51  43  74  SW12    30.07R
$$

WAZ030-220610-
BLUE MOUNTAINS...WASHINGTON

CITY            SKY/WX      TMP DP  RH  WIND    PRES   REMARKS
#DIXIE 5SE      N/A         41  37  86  SW15    29.98R WCI 33
#SKI BLUEWOOD   N/A         35  32  89  E2      30.09R
$$

ORZ009-041-WAZ024-220610-
COLUMBIA RIVER GORGE

CITY            SKY/WX      TMP DP  RH  WIND    PRES   REMARKS
HOOD RIVER AP   RAIN        46  46  100 CALM    30.12S
THE DALLES AP   CLOUDY      53  44  71  NW10    30.10R
#ARLINGTON AIRPON/A         49  44  83  W14     29.86F WCI 44
#ARLINGTON HS   N/A         52  43  71  N7      30.00R
#CELILO DOT     N/A         51  40  66  SW3     N/A
#LYLE           N/A         52  48  86  W10     30.11S
#MARYHILL 2W    N/A         48  47  96  S7      N/A
#MOSIER 1S      N/A         48  45  89  W8      30.12S
#MURDOCK        N/A         52  48  86  W13     30.11S
#RUFUS DOT      N/A         53  41  64  CALM    N/A

$$

ORZ510-220610-
NORTH CENTRAL OREGON

CITY            SKY/WX      TMP DP  RH  WIND    PRES   REMARKS
#CHENOWITH 1W   N/A         43  43  100 W29     N/A    WCI 33
#COW CYN RST AREN/A         42  36  79  W13     N/A    WCI 35
#DUFUR 9E       N/A         44  40  86  SW3     30.12F
#GRASS VALLEY   N/A         42  40  93  SW2     N/A
#GRASS VALLEY 1SN/A         41  39  93  W2      30.14S
#KENT DOT       N/A         43  32  65  W13     N/A    WCI 36
#MAUPIN SCHOOL  N/A         50  40  68  SW1     30.11F
#MORO SCHOOL    N/A         46  43  89  SW6     30.09S
#SHANIKO 4NW    N/A         39  36  89  W17G24  30.07F WCI 30
#TYGH VALLEY 2NEN/A         49  41  74  W2      30.09F
#WAPANITIA AIRPON/A         45  40  82  S1      30.11S
#WASCO DOT      N/A         47  39  74  W6      N/A
#WASCO AIRPORT  N/A         47  39  74  W17     N/A    WCI 40
#WASCO 5NE      N/A         45  42  89  SW1     30.09R
$$

ORZ511-220610-
CENTRAL OREGON

CITY            SKY/WX      TMP DP  RH  WIND    PRES   REMARKS
BEND AIRPORT    MOCLDY      41  39  93  CALM    30.14S
MADRAS AIRPORT  CLOUDY      43  41  93  S3      30.14S
PRINEVILLE AP   CLOUDY      43  41  93  SW5     30.14S
REDMOND AIRPORT CLOUDY      43  40  89  W3      30.12F
#BEND 1SW       N/A         40  39  96  CALM    N/A
#BEND-AWBREY    N/A         41  40  96  CALM    30.13F
#BEND-KIM LN    N/A         40  39  96  CALM    30.10S
#CROOKED RVR RANN/A         44  40  86  W41G60  30.12S WCI 32
#CULVER         N/A         44  39  82  CALM    30.09S
#LAKE BILLY CHINN/A         47  25  42  SW5     30.18S
#POWELL BUTTE 3EN/A         43  41  93  SW3     N/A
#POWELL BUTTE   N/A         43  39  86  W2      29.75S
#PRINEVILLE 3N  N/A         42  41  96  E1      30.09R
#WARM SPRINGS   N/A         44  43  96  CALM    30.10S


ORZ509-220610-
EAST SLOPES OF OREGON CASCADES

CITY            SKY/WX      TMP DP  RH  WIND    PRES   REMARKS
#BLUE BOX PASS  N/A         37  -13 11  CALM    N/A
#BLACK BUTTE RNCN/A         40  40  100 CALM    30.13R
#CAMP SHERMAN   N/A         40  39  96  CALM    30.17R
#LA PINE DOT    N/A         44  42  93  W3      N/A
#LA PINE 4NW    N/A         44  41  89  W2      30.16R
#LAVA BUTTE DOT N/A         42  40  93  SW2     N/A
#MT BACHELOR-MIDN/A         32  32  100 E21G37  N/A    WCI 20
#SISTERS AIRPOR N/A         41  41  100 N1      30.17S
#SISTERS ODOT   N/A         41  N/A N/A CALM    N/A
#SISTERS 1NW    N/A         42  39  89  SE6     N/A
#SISTERS 3N     N/A         39  38  96  CALM    30.16S
#SUNRIVER       N/A         43  43  100 S2      30.01S
#TUMALO 3W      N/A         40  39  96  SE5     30.02S
#WANOGA BUTTE D N/A         37  36  96  W15G29  N/A    WCI 28

$$

ORZ044-220610-
LOWER COLUMBIA BASIN...OREGON

CITY            SKY/WX      TMP DP  RH  WIND    PRES   REMARKS
HERMISTON       MOCLDY      50  41  71  SW13    30.06R
#BOARDMAN 8SW   N/A         51  44  77  SW8     30.07S
#ECHO 8SW       N/A         50  40  68  SW7     30.04S
#IONE SCHOOL    N/A         51  38  61  SW13    30.07F
#IRRIGON 4NW    N/A         50  45  83  S10     N/A
#UMATILLA SCHOOLN/A         50  47  89  N8      30.09R
#UMATILLA       N/A         53  42  66  SW9     30.04R
$$

ORZ507-220610-
NORTHERN FOOTHILLS OF THE BLUES

CITY            SKY/WX      TMP DP  RH  WIND    PRES   REMARKS
PENDLETON AIRPT MOCLDY      48  39  71  W15     30.06R WCI 42
#ADAMS 3WNW     N/A         46  40  79  SW10    30.07R
#ATHENA         N/A         46  41  83  CALM    30.09R
#CAYUSE         N/A         49  41  74  SW13    30.06R WCI 44
#HELIX SCHOOL   N/A         46  41  83  W7      30.06R
#HELIX 3N       N/A         45  41  86  SW15    30.02R WCI 38
#HOLDMAN 5SE    N/A         48  42  80  W8      30.06S
#HOLDMAN 6E     N/A         46  41  83  N10     29.88R
#M-F GROVE ELEM N/A         49  39  68  S7      30.05R
#M-FREEWATER 5SEN/A         49  41  74  SW8     30.06R
#PENDLETON DNTN N/A         51  35  54  CALM    28.88S
#PDT AQUATIC CTRN/A         52  38  59  W8      30.06S
#PENDLETON 5NE  N/A         48  41  77  W2      30.03R
#PDT SUNRIDGE   N/A         51  42  71  W5      30.08S
#PENDLETON 7NW  N/A         48  40  74  W10     N/A
#PILOT ROCK     N/A         48  36  63  S2      30.09S
#TUTUILLA       N/A         48  40  74  SW2     30.08R
#UMAPINE 2E     N/A         52  44  74  SW8     30.03R
#WESTON SCHOOL  N/A         46  38  73  W3      30.05R

$$

ORZ508-220610-
SOUTHERN FOOTHILLS OF THE BLUES

CITY            SKY/WX      TMP DP  RH  WIND    PRES   REMARKS
LEXINGTON       CLOUDY      48  39  71  SW9     30.10S
#AJAX           N/A         46  34  63  S8      30.01S
#CONDON SCHOOL  N/A         42  38  86  CALM    30.04S
#CONDON 5W      N/A         42  38  86  SW10    30.04F
#FOSSIL SCHOOL  N/A         44  39  82  W1      30.07S
#HEPPNER EOC    N/A         46  39  76  W2      30.05R
#HEPPNER 4NE    N/A         43  38  82  SW5     30.08F
#LEXINGTON 2SE  N/A         50  40  68  SW2     30.05S
#MIKKALO        N/A         47  38  71  W5      30.07S
#OLEX 4N        N/A         48  42  80  SW10    30.07R
#RUGGS 5NE      N/A         42  38  86  SW7     30.23R
#RUGGS 2SW      N/A         44  38  79  W13     30.10S WCI 38

$$

ORZ502-503-220610-
BLUE MOUNTAINS

CITY            SKY/WX      TMP DP  RH  WIND    PRES   REMARKS
MEACHAM         CLOUDY      41  36  82  VRB6    30.05S
#BATTLE MTN DOT N/A         38  38  100 CALM    N/A
#HARDMAN 10S    N/A         37  35  92  CALM    30.22S
#HEPPNER 15SE   N/A         38  35  89  W2      29.99R
#LADD CYN SMT   N/A         41  31  67  W10     N/A
#LADD CREEK ODOTN/A         40  37  89  NE2     N/A
#LONG CREEK HS  N/A         39  39  100 CALM    30.05F
#N POWDER DOT   N/A         38  37  96  CALM    N/A
#PIKES PEAK     N/A         39  37  92  SW25    27.99S WCI 28
#TOLLGATE       N/A         33  33  100 S8      29.94R
#TROY SCHOOL    N/A         42  40  93  CALM    29.91R
#UKIAH          N/A         39  38  96  SW1     30.14S
#WESTON 4E      N/A         40  37  89  S7      30.02R
$$

ORZ505-220610-
JOHN DAY BASIN

CITY            SKY/WX      TMP DP  RH  WIND    PRES   REMARKS
JOHN DAY        LGT RAIN    41  39  93  SW3     30.11S
#JOHN DAY KJDY  N/A         43  40  89  CALM    30.21R
#DAYVILLE SCHOOLN/A         32  29  89  CALM    30.16S
#MONUMENT HS    N/A         44  41  89  CALM    30.11S
#MT. VERNON 5SE N/A         38  37  96  CALM    30.06S
#WINLOCK        N/A         42  40  93  N3      30.17S
$$

ORZ506-220610-
OCHOCO AND JOHN DAY HIGHLANDS

CITY            SKY/WX      TMP DP  RH  WIND    PRES   REMARKS
#HORSE RIDGE DO N/A         40  39  96  NW9     N/A
#KEYES SMT DOT  N/A         38  38  100 NW3     N/A
#PRAIRIE CITY   N/A         35  33  92  CALM    30.24R
#SENECA         N/A         35  N/A N/A CALM    N/A
#SENECA 9NW     N/A         33  32  96  CALM    30.12S
$$

ORZ049-220610-
GRANDE RONDE VALLEY

CITY            SKY/WX      TMP DP  RH  WIND    PRES   REMARKS
LA GRANDE       CLOUDY      45  32  60  CALM    30.05F
#COVE           N/A         41  35  79  CALM    30.03S
#COVE SCHOOL    N/A         41  38  89  CALM    30.04S
#COVE 6NW       N/A         42  37  82  CALM    30.13S
#ELGIN 3N       N/A         43  34  70  CALM    29.77R
#ELGIN 1E       N/A         45  37  73  CALM    N/A
#ISLAND CITY 4N N/A         49  48  96  CALM    30.14R
#LADD CYN DOT   N/A         45  35  68  W7      N/A
#UNION 1S       N/A         43  39  86  NE5     30.01F
$$

ORZ050-220610-
WALLOWA COUNTY

CITY            SKY/WX      TMP DP  RH  WIND    PRES   REMARKS
JOSEPH AIRPORT  CLOUDY      36  32  85  CALM    30.05R
#ENTERPRISE AP  N/A         38  32  79  CALM    29.98R
#ENTERPRISE HS  N/A         38  34  85  CALM    30.05R
#IMNAHA SCHOOL  N/A         46  40  79  S1      30.05R
#IMNAHA 10S     N/A         41  37  86  CALM    30.04R
#JOSEPH 3N      N/A         36  32  85  CALM    30.05R
#JOSEPH 3W      N/A         33  30  89  CALM    29.86F
#LOSTINE        N/A         42  35  76  CALM    29.85R
#MT HOWARD 8000 N/A         25  24  96  W1      29.95S
#PROMISE 1S     N/A         38  35  89  E8      30.14S
#SHEEP RDG 7000 N/A         27  25  92  CALM    30.07R
#WALLOWA SCHOOL N/A         41  38  89  CALM    30.99S



$$




U.S. Dept. of Commerce
NOAA National Weather Service
1325 East West Highway
Silver Spring, MD 20910
E-mail: w-nws.webmaster@noaa.gov
Page last modified: May 16, 2007
NATIONAL WEATHER SERVICE: for Safety, for Work, for Fun - FOR LIFE